Location: Newark
(60.6561°N, 46.5772°E)
Time: 05:21:56
(UTC+00:00)

Tiros 1 - Pass Details

Date: 21 October 2019
Orbit: 630 x 664 km, 48.4° (Epoch: 14 November)

Event Time Altitude Azimuth Distance (km) Brightness Sun altitude
Exits shadow 02:16:14 10° 233° (SW) 2,071 9.3 -11.9°
Maximum altitude 02:19:13 17° 194° (SSW) 1,674 9.1 -11.5°
Drops below altitude 10° 02:22:15 10° 155° (SSE) 2,082 10.1 -11.2°
Sets 02:25:19 0° 135° (SE) 2,992 11.4 -10.8°
